SCP
0 0 0 0 0 0 0 0 0 0 0 0 0 0 0 0 0 0 0 0 0 0 0 0 0 0 0 0 0 0 0 0 0 0 0 0 0 0 0 0 0 0 0
0 0 0 0 0 0 0 0 0 0 0 0 0 0 0 0 0 0 0 0 0 0 0 0 0 0 0 0 0 0 0 0 0 0 0 0 0 0 0 0 0 0 0
0 0 0 0 0 0 0 0 0 0 0 0 0 0 0 0 0 0 0 0 0 0 0 0 0 0 0 0 0 0 0 0 0 0 0 0 0 0 0 0 0 0 0
0 0 0 0 0 0 0 0 0 0 0 0 0 0 0 0 0 0 0 0 0 0 0 0 0 0 0 0 0 0 0 0 0 0 0 0 0 0 0 0 0 0 0
0 0 0 0 0 0 0 0 0 0 0 0 0 0 0 0 0 0 0 0 0 0 0 0 0 0 0 0 0 0 0 0 0 0 0 0 0 0 0 0 0 0 0
0 0 0 0 0 0 0 0 0 0 0 0 0 0 0 0 0 0 0 0 0 0 0 0 0 -0 0 0 0 0 0 0 0 0 0 0 0 0 0 0 0 0 0
0 0 0 0 0 0 0 0 0 0 0 0 0 0 0 0 0 0 0 0 0 0 0 0 -0 -0 -0 0 0 0 0 0 0 0 0 0 0 0 0 0 0 0 0
0 0 0 0 0 0 0 0 0 0 0 0 0 0 0 0 0 0 0 0 0 0 0 0 -0 -0 -0 0 0 0 0 0 0 0 0 0 0 0 0 0 0 0 0
0 0 0 0 0 0 0 0 0 0 0 0 0 0 0 0 0 0 0 0 0 0 0 0 0 -0 0 0 0 0 0 0 0 0 0 0 0 0 0 0 0 0 0
0 0 0 0 0 0 0 0 0 0 0 0 0 0 0 0 0 0 0 0 0 0 0 0 0 0 0 0 0 0 0 0 0 0 0 0 0 0 0 0 0 0 0
0 0 0 0 0 0 0 0 0 0 0 0 0 0 0 0 0 0 0 0 0 0 0 0 0 0 0 0 0 0 0 0 0 0 0 0 0 0 0 0 0 0 0
0 0 0 0 0 0 0 0 0 0 0 0 0 0 0 0 0 0 0 0 0 0 0 0 0 0 0 0 0 0 0 0 0 0 0 0 0 0 0 -0 -0 -0 -0
0 0 0 0 0 0 0 0 0 0 0 0 0 0 0 0 0 0 0 0 0 0 0 0 0 0 0 0 0 0 0 0 0 0 0 0 0 0 0 -0 -0 -0 -0
0 0 0 0 0 0 0 0 0 0 0 0 0 0 0 0 0 0 0 0 0 0 0 0 0 0 0 0 0 0 0 0 0 0 0 0 0 0 0 -0 -0 -0 -0
0 0 0 0 0 0 0 0 0 0 0 0 0 0 0 0 0 0 0 0 0 0 0 0 0 0 0 0 0 0 0 0 0 0 0 0 0 0 0 0 -0 -0 -0
0 0 0 0 0 0 0 0 0 0 0 0 0 0 0 0 0 0 0 0 0 0 0 0 0 0 0 0 0 0 0 0 0 0 0 0 0 0 0 0 -0 -0 -0
0 0 0 0 0 0 0 0 0 0 0 0 0 0 0 0 0 0 0 0 0 0 0 0 0 0 0 0 0 0 0 0 0 0 0 0 0 0 0 0 0 -0 -0
0 0 0 0 0 0 0 0 0 0 0 0 0 0 0 0 0 0 0 0 0 0 0 0 0 0 0 0 0 0 0 0 0 0 0 0 0 0 0 0 0 0 0
0 0 0 0 0 0 0 0 0 0 0 0 0 0 0 0 0 0 0 0 0 0 0 0 0 0 0 0 0 0 0 0 0 0 0 0 0 0 0 0 0 0 0
0 0 0 0 0 0 0 0 0 0 0 0 0 0 0 0 0 0 0 0 0 0 0 0 0 0 0 0 0 0 0 0 0 0 0 0 0 0 0 0 0 0 0
0 0 0 0 0 0 0 0 0 0 0 0 0 0 0 0 0 0 0 0 0 0 0 0 0 0 0 0 0 0 0 0 0 0 0 0 0 0 0 0 0 0 0
0 0 0 0 0 0 0 0 0 0 0 0 0 0 0 0 0 0 0 0 0 0 0 0 0 0 0 0 0 0 0 0 0 0 0 0 0 0 0 0 0 0 0
0 0 0 0 0 0 0 0 0 0 0 0 0 0 0 0 0 0 0 0 0 0 0 0 0 0 0 0 0 0 0 0 0 0 0 0 0 0 0 0 0 0 0
0 0 0 0 0 0 0 0 0 0 0 0 0 0 0 0 0 0 0 0 0 0 0 0 0 0 0 0 0 0 0 0 0 0 0 0 0 0 0 0 0 0 0
0 0 0 0 0 0 0 0 0 0 0 0 0 0 0 0 0 0 0 0 0 0 0 0 0 0 0 0 0 0 0 0 0 0 0 0 0 0 0 0 0 0 0
0 0 0 0 0 0 0 0 0 0 0 0 0 0 0 0 0 0 0 0 0 0 0 0 0 0 0 0 0 0 0 0 0 0 0 0 0 0 0 0 0 0 0
Wind_Speed
1 1 2 2 2 1 1 1 1 1 1 1 1 1 2 2 2 2 2 2 3 2 2 3 4 3 3 3 3 3 3 3 4 3 2 2 2 2 2 2 3 3 4
1 1 2 2 2 2 2 2 1 1 1 1 1 1 2 2 2 2 3 3 3 3 3 3 4 3 4 3 3 4 3 3 3 4 3 2 2 2 2 3 3 3 3
2 2 2 2 2 3 2 2 2 2 2 2 2 2 2 2 2 2 3 3 3 3 3 3 3 3 4 3 3 3 3 2 2 3 3 2 2 2 2 2 2 2 2
3 2 2 2 2 3 2 2 2 2 2 2 2 2 2 2 2 2 2 2 2 2 2 3 3 3 3 3 3 4 3 3 3 3 2 2 2 2 2 2 1 2 2
3 3 3 2 2 3 3 2 2 2 3 2 2 3 2 2 2 2 2 2 2 3 3 3 3 4 5 4 3 3 4 3 3 2 3 2 2 2 2 1 1 2 2
3 3 3 3 3 3 3 2 3 3 3 3 2 2 3 2 4 5 4 2 2 3 3 3 3 3 4 4 4 4 5 5 4 3 3 3 3 2 1 1 1 1 2
3 3 3 3 3 3 3 3 3 3 3 3 3 2 3 3 5 5 5 3 2 2 3 2 3 2 2 2 2 3 3 4 5 5 4 4 4 3 2 2 2 2 2
3 3 3 3 3 4 3 3 3 3 3 3 3 3 2 3 5 6 6 3 2 2 2 2 2 1 1 1 1 2 2 3 4 4 4 4 3 3 3 3 3 1 1
3 3 3 3 3 4 4 3 3 3 3 3 3 3 3 3 5 6 5 2 2 2 2 2 1 1 1 1 1 1 2 2 2 3 4 4 4 4 3 2 1 1 1
3 3 4 3 3 3 3 3 3 3 3 3 3 3 3 3 5 6 5 1 2 2 2 2 2 2 2 2 1 2 2 2 1 2 2 2 3 3 4 4 3 3 1
3 3 3 3 3 3 3 2 3 3 3 3 3 3 3 3 5 6 6 2 2 2 2 2 2 2 2 3 2 2 2 2 1 2 2 1 1 1 2 1 2 3 3
3 3 3 3 3 3 2 3 3 2 2 2 2 3 3 3 5 6 7 6 5 2 2 2 2 3 3 3 2 2 2 1 1 0 0 1 1 0 0 0 0 1 2
3 3 3 4 3 3 2 2 2 2 2 2 2 3 3 3 4 7 7 7 7 4 2 4 4 5 3 2 2 2 1 0 0 0 0 1 0 0 1 1 1 1 1
3 3 3 3 3 3 2 2 2 2 2 3 3 3 3 4 4 4 4 4 5 4 3 3 4 4 3 3 2 2 1 0 0 0 0 0 0 1 1 1 0 0 1
3 3 3 3 3 3 3 3 3 2 3 3 2 2 3 3 5 7 5 4 3 3 3 2 2 2 2 2 2 2 2 1 1 1 0 0 0 1 0 0 1 0 1
3 3 3 3 3 3 3 3 5 5 6 6 6 5 4 5 8 8 8 7 7 5 3 2 2 2 2 2 2 2 2 1 1 1 1 0 0 1 0 0 0 1 1
2 3 2 3 3 3 3 3 3 5 7 7 8 8 7 7 8 8 8 7 7 6 3 2 2 2 2 2 2 2 2 2 1 1 1 0 0 0 0 0 1 1 1
2 3 3 2 2 2 2 2 2 2 3 4 6 8 9 9 9 9 8 6 5 5 3 3 3 2 2 2 2 2 2 2 1 1 1 0 0 1 1 0 1 1 1
2 2 2 2 2 2 2 2 2 2 2 3 3 5 8 8 8 9 8 4 3 3 3 3 3 2 2 2 2 2 2 2 2 1 1 1 0 0 0 0 0 0 0
2 4 4 2 2 2 3 2 2 2 2 3 3 4 4 5 4 5 5 4 3 3 3 3 3 3 2 2 2 2 2 2 1 2 1 1 1 1 0 0 0 0 0
1 2 4 3 2 2 2 2 2 2 2 2 3 4 6 4 4 4 4 4 4 3 4 3 3 3 3 2 2 2 2 2 1 1 1 1 1 1 1 1 1 1 1
1 1 2 2 2 2 2 2 2 2 2 3 3 4 7 4 3 4 4 4 4 4 3 3 3 3 3 2 2 2 2 2 2 1 1 1 1 1 1 1 1 1 1
1 1 2 2 2 3 3 2 2 2 2 3 3 3 3 3 3 4 4 4 4 4 4 3 3 3 3 3 2 2 2 2 2 1 1 1 1 1 1 1 1 1 1
1 1 1 2 2 2 2 2 2 3 3 3 3 3 3 3 3 4 4 4 4 4 3 3 3 4 5 3 2 2 2 2 2 1 1 0 1 1 1 1 1 1 1
1 1 1 1 1 2 2 2 2 3 3 3 3 3 3 3 3 3 3 3 4 4 4 4 3 3 4 4 4 3 3 3 2 1 1 0 1 1 1 1 1 2 2
1 1 1 1 1 1 1 2 2 2 2 3 3 3 3 3 3 3 3 3 4 4 4 4 5 5 5 4 4 4 4 3 3 2 1 1 1 1 1 1 2 2 2
Wind_Direction
42 20 358 342 328 319 304 281 276 283 264 242 246 261 266 263 259 262 266 270 266 269 272 252 244 245 243 228 217 216 221 219 245 264 260 254 243 251 264 260 252 227 237
28 16 1 341 342 332 325 317 305 292 289 275 253 245 257 266 267 261 263 270 268 266 260 259 256 251 242 231 220 219 218 216 228 255 271 260 249 234 252 265 266 253 227
19 2 359 350 351 340 341 340 339 327 320 309 284 265 264 265 265 257 256 261 269 270 267 260 261 258 250 236 223 224 226 229 224 234 256 260 258 247 246 263 259 269 247
8 359 1 1 350 340 338 339 337 326 321 315 303 291 282 280 277 273 273 280 285 286 280 273 266 259 265 252 232 225 221 224 225 226 239 246 256 249 217 227 280 303 286
5 359 358 6 355 343 343 340 336 333 331 322 314 306 298 290 282 287 283 286 282 281 282 273 263 262 266 261 250 225 215 219 221 223 228 243 248 230 219 204 254 303 293
1 354 354 5 357 340 335 341 344 342 337 330 315 314 314 309 303 302 297 279 273 268 272 271 266 256 267 268 271 258 229 215 217 220 232 230 231 226 230 219 232 284 286
358 350 352 355 348 337 337 348 347 338 328 325 319 323 325 311 306 307 307 295 278 271 267 269 279 273 278 252 271 285 261 238 224 217 220 228 225 217 212 228 245 244 255
354 352 352 350 344 340 344 343 339 330 321 319 316 314 315 313 320 318 321 309 298 287 283 271 270 280 259 268 265 264 260 248 233 225 218 228 226 208 203 222 232 254 299
353 349 347 346 341 339 341 339 332 329 327 320 312 312 313 310 324 326 323 303 304 302 297 296 280 259 289 306 267 259 272 272 255 245 240 245 240 235 221 206 191 178 278
344 342 339 340 336 330 332 327 324 325 318 317 318 318 317 317 324 327 329 316 318 312 311 309 295 283 281 281 248 234 255 261 269 267 249 247 233 224 216 203 192 191 208
347 346 343 345 338 329 332 328 327 329 326 322 326 328 329 328 332 337 342 340 327 319 316 319 312 310 294 294 293 251 272 268 247 258 238 223 214 199 190 193 199 198 208
355 354 349 349 341 338 346 341 338 337 333 329 337 340 340 338 345 345 347 345 342 323 316 320 325 317 309 313 312 316 328 312 243 245 227 213 198 205 65 133 181 228 237
357 356 353 349 343 340 347 344 339 340 341 337 345 346 346 351 354 355 349 346 344 337 329 335 338 334 330 338 347 343 344 4 137 132 264 267 236 198 120 92 57 24 332
358 351 351 355 349 348 343 336 339 342 346 345 346 344 340 340 343 342 339 342 344 342 339 343 348 348 344 343 347 345 348 51 79 146 307 296 3 108 109 120 145 58 33
356 350 351 354 351 351 351 349 342 344 344 340 334 331 332 333 337 338 339 341 338 331 330 338 351 351 353 357 7 9 15 28 29 35 88 134 126 121 124 118 175 182 156
354 355 353 352 351 351 353 358 6 1 0 357 352 344 341 341 341 348 350 350 351 349 349 353 356 353 349 354 2 6 4 9 15 22 35 71 162 151 142 132 148 163 159
351 344 343 346 347 344 346 355 356 3 9 7 6 3 1 355 355 355 354 357 2 5 10 6 359 356 352 353 355 359 353 350 7 26 11 345 162 143 135 166 161 149 154
348 343 343 343 340 338 338 341 345 353 357 1 4 7 6 5 7 8 5 7 9 12 11 7 1 357 347 345 351 357 357 359 8 10 3 340 200 166 158 181 180 158 163
343 339 345 345 344 340 341 350 357 358 359 353 353 358 3 4 10 13 11 12 6 359 360 359 356 350 344 345 354 359 356 354 357 355 346 338 355 142 142 156 146 168 163
349 350 351 350 349 351 354 359 1 1 358 354 354 348 348 356 1 1 4 3 3 356 351 351 352 354 353 353 357 355 349 348 354 353 346 348 3 58 81 91 121 136 165
343 344 349 352 351 353 355 356 355 357 356 353 348 348 357 356 354 355 356 355 353 349 346 346 349 354 356 350 347 344 341 343 351 354 350 347 356 30 53 59 66 83 108
337 333 336 342 351 1 360 0 360 0 358 355 349 351 358 2 358 356 353 348 345 345 342 342 349 351 348 341 339 340 340 341 343 347 345 347 357 13 37 70 85 101 113
340 346 349 351 360 5 7 8 6 0 355 352 349 351 353 357 357 355 349 345 345 346 347 351 354 352 350 342 341 338 328 320 319 318 328 342 352 360 49 83 89 106 112
357 351 352 1 8 12 11 6 1 357 355 354 355 354 351 350 350 347 344 342 344 346 347 349 352 350 346 342 338 332 320 315 319 321 314 333 9 32 50 75 80 88 102
3 351 1 7 6 7 6 359 357 355 352 352 352 350 347 346 346 342 342 343 343 347 349 348 348 348 344 341 340 338 340 347 350 352 357 42 76 65 60 74 91 96 92
355 356 3 6 9 6 1 352 348 347 346 347 348 344 340 340 338 337 339 345 345 344 346 344 345 346 342 339 342 346 352 7 20 13 12 76 93 88 85 84 92 98 97